| time (UTC) | temp F | wind direction | speed MPH | gust MPH | rain 1hr in | rain 24hr in | rain mn in | humidity % | barometer mb |
| 20260506090055 | 75 | 268 | 4.0 | 8.0 | 0.00 | 0.02 | 0.00 | 88 | 1007.5 |
| 20260506084552 | 75 | 0 | 0.0 | 1.0 | 0.00 | 0.03 | 0.00 | 88 | 1007.6 |
| 20260506083059 | 75 | 0 | 0.0 | 4.0 | 0.00 | 0.03 | 0.00 | 88 | 1007.6 |
| 20260506081554 | 76 | 246 | 2.0 | 4.0 | 0.00 | 0.03 | 0.00 | 87 | 1007.4 |
| 20260506073053 | 76 | 261 | 4.0 | 8.0 | 0.00 | 0.03 | 0.00 | 87 | 1007.8 |
| 20260506071557 | 76 | 277 | 1.0 | 8.0 | 0.00 | 0.03 | 0.00 | 87 | 1008.1 |
| 20260506070109 | 76 | 238 | 4.0 | 8.0 | 0.00 | 0.03 | 0.00 | 86 | 1008.2 |
| 20260506061557 | 77 | 242 | 5.0 | 10.0 | 0.00 | 0.03 | 0.00 | 86 | 1008.6 |
| 20260506044553 | 77 | 242 | 5.0 | 8.0 | 0.00 | 0.03 | 0.03 | 86 | 1008.5 |
| 20260506043051 | 77 | 253 | 4.0 | 9.0 | 0.00 | 0.03 | 0.03 | 86 | 1008.4 |
| 20260506041557 | 77 | 276 | 4.0 | 10.0 | 0.00 | 0.03 | 0.03 | 86 | 1008.2 |
| 20260506034604 | 76 | 253 | 6.0 | 11.0 | 0.00 | 0.03 | 0.03 | 86 | 1007.6 |
| 20260506033055 | 76 | 256 | 6.0 | 10.0 | 0.00 | 0.03 | 0.03 | 87 | 1007.5 |
| 20260506031600 | 76 | 242 | 7.0 | 13.0 | 0.01 | 0.03 | 0.03 | 86 | 1007.3 |
| 20260506030053 | 77 | 252 | 7.0 | 12.0 | 0.01 | 0.03 | 0.03 | 85 | 1007.2 |
| 20260506024558 | 77 | 243 | 6.0 | 12.0 | 0.01 | 0.03 | 0.03 | 84 | 1007.2 |
| 20260506023058 | 78 | 265 | 5.0 | 12.0 | 0.01 | 0.03 | 0.03 | 84 | 1007.0 |
| 20260506021600 | 78 | 286 | 8.0 | 13.0 | 0.00 | 0.02 | 0.02 | 84 | 1006.8 |
| 20260506014558 | 78 | 270 | 6.0 | 10.0 | 0.00 | 0.02 | 0.02 | 83 | 1006.8 |
| 20260506013056 | 78 | 259 | 5.0 | 9.0 | 0.00 | 0.02 | 0.02 | 83 | 1006.6 |
| 20260506011608 | 78 | 277 | 7.0 | 12.0 | 0.00 | 0.02 | 0.02 | 82 | 1006.2 |
| 20260506010059 | 79 | 287 | 6.0 | 11.0 | 0.00 | 0.02 | 0.02 | 82 | 1006.0 |
| 20260506004552 | 79 | 251 | 7.0 | 14.0 | 0.00 | 0.02 | 0.02 | 82 | 1005.9 |
| 20260506003053 | 79 | 263 | 7.0 | 15.0 | 0.00 | 0.02 | 0.02 | 81 | 1005.4 |
| 20260506001554 | 80 | 257 | 9.0 | 16.0 | 0.00 | 0.02 | 0.02 | 81 | 1005.5 |
| 20260506000053 | 80 | 255 | 9.0 | 19.0 | 0.00 | 0.02 | 0.02 | 79 | 1005.4 |
| 20260505234600 | 80 | 252 | 10.0 | 18.0 | 0.00 | 0.02 | 0.02 | 79 | 1005.4 |
| 20260505233108 | 81 | 254 | 10.0 | 17.0 | 0.00 | 0.02 | 0.02 | 79 | 1005.2 |
| 20260505231600 | 81 | 260 | 11.0 | 17.0 | 0.00 | 0.02 | 0.02 | 78 | 1005.3 |
| 20260505230057 | 82 | 251 | 10.0 | 18.0 | 0.00 | 0.02 | 0.02 | 77 | 1005.2 |
| 20260505224552 | 83 | 275 | 13.0 | 19.0 | 0.00 | 0.03 | 0.02 | 74 | 1005.4 |
| 20260505223058 | 83 | 277 | 12.0 | 19.0 | 0.00 | 0.03 | 0.02 | 76 | 1005.6 |
| 20260505221555 | 83 | 247 | 12.0 | 17.0 | 0.00 | 0.03 | 0.02 | 75 | 1005.6 |
| 20260505220100 | 84 | 269 | 8.0 | 14.0 | 0.00 | 0.03 | 0.02 | 74 | 1005.8 |
| 20260505214555 | 84 | 263 | 5.0 | 14.0 | 0.00 | 0.03 | 0.02 | 75 | 1005.9 |
| 20260505213055 | 84 | 244 | 9.0 | 15.0 | 0.00 | 0.03 | 0.02 | 74 | 1006.2 |
| 20260505211609 | 85 | 273 | 8.0 | 13.0 | 0.00 | 0.03 | 0.02 | 73 | 1006.3 |
| 20260505210054 | 84 | 240 | 7.0 | 17.0 | 0.00 | 0.03 | 0.02 | 75 | 1006.5 |
| 20260505204602 | 86 | 256 | 10.0 | 14.0 | 0.00 | 0.03 | 0.02 | 72 | 1006.6 |
| 20260505203058 | 85 | 268 | 10.0 | 16.0 | 0.00 | 0.03 | 0.02 | 73 | 1006.9 |
| 20260505201602 | 84 | 253 | 8.0 | 13.0 | 0.00 | 0.03 | 0.02 | 72 | 1007.1 |
| 20260505194607 | 84 | 284 | 8.0 | 13.0 | 0.00 | 0.03 | 0.02 | 74 | 1007.4 |
| 20260505193057 | 83 | 298 | 5.0 | 10.0 | 0.00 | 0.03 | 0.02 | 74 | 1007.6 |
| 20260505191556 | 83 | 243 | 7.0 | 11.0 | 0.00 | 0.03 | 0.02 | 74 | 1007.7 |
| 20260505190100 | 83 | 271 | 6.0 | 11.0 | 0.00 | 0.03 | 0.02 | 74 | 1007.8 |
| 20260505184557 | 83 | 271 | 9.0 | 13.0 | 0.00 | 0.03 | 0.02 | 74 | 1007.9 |
| 20260505183053 | 83 | 285 | 6.0 | 14.0 | 0.00 | 0.03 | 0.02 | 74 | 1008.1 |
| 20260505181557 | 82 | 286 | 6.0 | 15.0 | 0.00 | 0.03 | 0.02 | 75 | 1008.2 |
| 20260505180058 | 82 | 287 | 8.0 | 13.0 | 0.01 | 0.03 | 0.02 | 76 | 1008.3 |
| 20260505174602 | 81 | 283 | 7.0 | 12.0 | 0.01 | 0.03 | 0.02 | 77 | 1008.4 |
| 20260505173058 | 80 | 258 | 8.0 | 13.0 | 0.01 | 0.03 | 0.02 | 78 | 1008.5 |
| 20260505171605 | 80 | 271 | 9.0 | 14.0 | 0.01 | 0.03 | 0.02 | 78 | 1008.5 |
| 20260505170059 | 79 | 293 | 8.0 | 12.0 | 0.00 | 0.02 | 0.01 | 79 | 1008.6 |
| 20260505164617 | 79 | 279 | 9.0 | 16.0 | 0.00 | 0.03 | 0.01 | 81 | 1008.7 |
| 20260505163107 | 78 | 302 | 8.0 | 15.0 | 0.00 | 0.03 | 0.01 | 82 | 1008.8 |
| 20260505161616 | 77 | 288 | 9.0 | 14.0 | 0.00 | 0.03 | 0.01 | 82 | 1008.8 |
| 20260505153107 | 76 | 280 | 5.0 | 10.0 | 0.00 | 0.03 | 0.01 | 86 | 1008.8 |
| 20260505151607 | 75 | 283 | 6.0 | 10.0 | 0.00 | 0.03 | 0.01 | 86 | 1008.8 |
| 20260505130111 | 70 | 0 | 0.0 | 0.0 | 0.00 | 0.03 | 0.01 | 92 | 1008.6 |
| 20260505124605 | 70 | 0 | 0.0 | 0.0 | 0.00 | 0.03 | 0.01 | 91 | 1008.5 |
| 20260505123101 | 70 | 0 | 0.0 | 3.0 | 0.00 | 0.03 | 0.01 | 92 | 1008.3 |
| 20260505121555 | 69 | 0 | 0.0 | 3.0 | 0.00 | 0.03 | 0.01 | 92 | 1008.2 |
| 20260505120107 | 69 | 360 | 1.0 | 4.0 | 0.00 | 0.03 | 0.01 | 91 | 1007.8 |
| 20260505114553 | 69 | 360 | 3.0 | 5.0 | 0.00 | 0.03 | 0.01 | 92 | 1007.7 |
| 20260505113055 | 69 | 360 | 2.0 | 4.0 | 0.00 | 0.03 | 0.01 | 92 | 1007.7 |
| 20260505111555 | 68 | 360 | 2.0 | 4.0 | 0.00 | 0.03 | 0.01 | 91 | 1007.7 |
| 20260505110106 | 68 | 0 | 0.0 | 2.0 | 0.00 | 0.03 | 0.01 | 91 | 1007.8 |
| 20260505101601 | 68 | 360 | 0.0 | 3.0 | 0.00 | 0.03 | 0.01 | 91 | 1007.8 |
| 20260505100053 | 67 | 360 | 2.0 | 4.0 | 0.00 | 0.03 | 0.01 | 91 | 1007.7 |
| 20260505094555 | 67 | 360 | 1.0 | 3.0 | 0.00 | 0.03 | 0.01 | 91 | 1007.9 |
| 20260505093052 | 67 | 360 | 0.0 | 3.0 | 0.00 | 0.03 | 0.01 | 91 | 1008.0 |
| 20260505091553 | 68 | 0 | 0.0 | 2.0 | 0.00 | 0.03 | 0.01 | 91 | 1008.2 |